User: anonymous   Login
Location: Mason Neck State Park
(38.6428°N, 77.1981°W)
Time: 10:54:27
(UTC-05:00)
Language:

Cosmos 1400 Rocket - Orbit

View from above orbital plane
View from above orbital plane
View from above satellite
View from above satellite

Ground track
Ground track

The orbit data is extracted from the following two-line orbital elements,

1 13403U 82079B   17050.89581501  .00000095  00000-0  48077-5 0  9992
2 13403  81.1677  43.6740 0032618 306.3809  53.4406 15.06484459879064
Epoch (UTC): 19 February 2017 21:29:58
Eccentricity: 0.0032618
inclination: 81.1677°
perigee height: 524 km
apogee height: 569 km
right ascension of ascending node: 43.6740°
argument of perigee: 306.3809°
revolutions per day: 15.06484459
mean anomaly at epoch: 53.4406°
orbit number at epoch: 87906

The dashed part of the orbit path shows where the satellite is in the earth's shadow,  

DLR